Location: D�derode
(51.8092°N, 10.1065°E)
Time: 21:19:10
(UTC+00:00)

ERS-2 - Pass Details

Date: 01 December 2020
Orbit: 492 x 498 km, 98.6° (Epoch: 24 January)

Event Time Altitude Azimuth Distance (km) Brightness Sun altitude
Exits shadow 18:11:02 34° 304° (NW) 841 3.6 -26.6°
Maximum altitude 18:11:18 35° 294° (WNW) 832 3.6 -26.6°
Drops below altitude 10° 18:14:39 10° 228° (SW) 1,703 5.4 -27.1°
Sets 18:16:50 0° 219° (SW) 2,581 6.3 -27.5°
